Temp
-14 -14 -14 -15 -15 -15 -15 -16 -16 -17 -17 -17 -18 -18 -19 -19 -20 -20 -20 -21 -21 -22 -23 -24 -24 -25 -25 -25 -26 -26 -26 -26 -26 -25 -26 -27 -27 -26 -25 -25 -24 -24 -23
-14 -15 -15 -15 -15 -16 -16 -16 -17 -18 -18 -19 -19 -20 -20 -20 -21 -21 -22 -23 -24 -24 -25 -25 -26 -26 -26 -26 -26 -26 -26 -27 -26 -26 -26 -27 -27 -27 -27 -26 -25 -25 -24
-15 -15 -15 -15 -16 -17 -17 -18 -18 -19 -19 -20 -20 -20 -21 -22 -23 -24 -24 -25 -25 -26 -26 -27 -27 -27 -27 -27 -27 -26 -26 -26 -26 -25 -26 -26 -26 -26 -27 -27 -26 -26 -25
-15 -15 -16 -16 -17 -17 -18 -19 -19 -19 -20 -20 -22 -23 -23 -24 -25 -25 -26 -26 -27 -27 -27 -27 -27 -27 -27 -26 -26 -26 -26 -26 -26 -25 -25 -26 -26 -26 -25 -26 -26 -26 -26
-15 -16 -17 -17 -18 -18 -18 -19 -20 -21 -22 -23 -23 -24 -25 -26 -26 -27 -27 -27 -27 -27 -28 -27 -27 -26 -26 -26 -26 -25 -25 -25 -25 -25 -25 -25 -26 -26 -26 -26 -26 -26 -26
-16 -17 -17 -18 -18 -18 -19 -20 -22 -23 -24 -25 -26 -26 -27 -27 -27 -27 -27 -27 -27 -27 -26 -26 -26 -26 -25 -25 -25 -25 -25 -25 -25 -25 -25 -25 -26 -26 -26 -26 -26 -26 -26
-17 -17 -17 -18 -19 -20 -21 -23 -24 -24 -26 -27 -27 -27 -27 -28 -28 -27 -27 -26 -26 -26 -25 -25 -25 -25 -25 -25 -25 -25 -25 -25 -25 -25 -25 -25 -25 -25 -25 -25 -26 -26 -26
-17 -18 -18 -19 -20 -22 -23 -24 -25 -26 -27 -27 -28 -27 -27 -27 -27 -27 -27 -26 -25 -25 -25 -25 -25 -25 -25 -25 -25 -25 -25 -25 -25 -25 -26 -26 -26 -25 -25 -25 -26 -26 -26
-18 -18 -19 -21 -23 -23 -24 -25 -26 -27 -28 -28 -27 -27 -27 -27 -27 -26 -26 -25 -25 -25 -25 -25 -25 -25 -25 -24 -24 -24 -25 -26 -26 -26 -26 -25 -26 -26 -26 -25 -25 -25 -26
-18 -19 -21 -23 -24 -24 -25 -26 -27 -27 -27 -27 -27 -27 -26 -26 -26 -25 -25 -25 -25 -24 -25 -25 -24 -24 -25 -25 -25 -25 -25 -25 -25 -26 -25 -25 -25 -25 -25 -25 -25 -25 -25
-20 -22 -24 -24 -24 -26 -26 -27 -27 -27 -26 -26 -26 -26 -26 -25 -24 -24 -24 -24 -24 -24 -24 -24 -25 -25 -25 -25 -25 -25 -25 -25 -25 -25 -25 -25 -26 -26 -26 -26 -26 -26 -25
-22 -24 -24 -25 -26 -27 -27 -27 -26 -26 -26 -26 -26 -26 -25 -24 -24 -24 -24 -24 -24 -24 -24 -25 -25 -25 -25 -25 -25 -25 -25 -25 -25 -26 -26 -26 -26 -27 -27 -27 -27 -27 -26
-24 -24 -25 -26 -26 -27 -27 -26 -26 -25 -25 -25 -25 -25 -25 -24 -24 -24 -24 -24 -24 -24 -25 -25 -25 -25 -25 -25 -25 -25 -25 -25 -26 -26 -27 -27 -28 -28 -28 -28 -28 -28 -28
-24 -25 -25 -26 -26 -26 -26 -25 -25 -25 -25 -24 -24 -24 -24 -24 -24 -24 -24 -24 -24 -24 -25 -25 -25 -25 -25 -25 -25 -25 -26 -26 -27 -27 -28 -28 -28 -29 -29 -29 -28 -28 -28
-25 -25 -26 -26 -26 -26 -25 -25 -25 -24 -24 -24 -24 -23 -23 -23 -23 -24 -24 -24 -24 -25 -25 -25 -25 -25 -25 -25 -25 -26 -26 -27 -28 -28 -28 -28 -29 -29 -29 -29 -28 -28 -28
-25 -26 -26 -26 -26 -25 -25 -25 -24 -24 -23 -23 -22 -22 -23 -23 -23 -24 -24 -24 -24 -24 -25 -25 -25 -25 -25 -25 -25 -26 -27 -28 -28 -28 -28 -28 -28 -28 -28 -28 -28 -28 -28
-26 -26 -26 -26 -26 -25 -24 -24 -24 -24 -23 -22 -22 -22 -22 -23 -23 -24 -24 -24 -24 -25 -25 -25 -25 -25 -25 -25 -26 -27 -28 -28 -28 -28 -28 -28 -28 -28 -28 -28 -28 -28 -27
-26 -26 -26 -26 -25 -24 -24 -24 -23 -23 -23 -22 -22 -22 -22 -23 -23 -24 -24 -24 -24 -24 -25 -25 -25 -25 -25 -25 -26 -27 -27 -27 -27 -27 -27 -27 -27 -27 -27 -27 -27 -27 -27
-26 -26 -26 -25 -24 -23 -23 -23 -23 -22 -22 -22 -21 -22 -22 -23 -23 -23 -24 -24 -24 -24 -25 -25 -25 -25 -25 -25 -26 -27 -27 -27 -27 -27 -26 -26 -27 -27 -27 -27 -27 -27 -26
-26 -25 -25 -24 -23 -23 -23 -22 -22 -22 -21 -21 -22 -22 -22 -23 -23 -23 -23 -24 -24 -24 -25 -25 -25 -25 -25 -25 -26 -27 -26 -26 -26 -26 -26 -26 -27 -27 -27 -26 -26 -26 -26
-24 -24 -23 -23 -23 -23 -22 -22 -21 -21 -21 -21 -22 -22 -22 -23 -23 -23 -23 -24 -24 -24 -24 -24 -25 -25 -25 -26 -26 -26 -26 -26 -26 -26 -26 -26 -26 -26 -26 -26 -26 -26 -26
-23 -23 -23 -22 -22 -22 -22 -21 -21 -21 -21 -21 -21 -22 -22 -22 -23 -23 -23 -23 -23 -24 -24 -24 -24 -25 -25 -25 -26 -26 -26 -26 -26 -26 -26 -26 -26 -26 -26 -26 -26 -26 -26
-22 -22 -22 -22 -22 -22 -21 -21 -21 -21 -21 -21 -21 -22 -22 -22 -22 -23 -23 -23 -23 -24 -24 -24 -24 -24 -25 -25 -26 -26 -26 -26 -26 -26 -26 -26 -26 -26 -26 -26 -26 -26 -26
-22 -22 -22 -22 -21 -21 -21 -21 -21 -21 -21 -21 -21 -22 -22 -22 -22 -23 -23 -23 -23 -23 -24 -24 -24 -24 -25 -25 -26 -26 -26 -26 -26 -26 -26 -26 -26 -26 -26 -26 -26 -26 -26
-22 -22 -21 -21 -21 -21 -21 -21 -21 -21 -21 -21 -21 -22 -22 -22 -22 -22 -23 -23 -23 -23 -24 -24 -24 -24 -25 -25 -26 -26 -26 -26 -26 -26 -26 -26 -26 -26 -26 -25 -26 -26 -26
-22 -21 -21 -21 -21 -21 -21 -21 -21 -21 -21 -21 -21 -21 -21 -21 -22 -22 -22 -23 -23 -23 -24 -24 -24 -24 -25 -25 -25 -26 -26 -26 -26 -26 -26 -25 -25 -25 -25 -25 -25 -26 -26
Height
5736 5732 5727 5722 5716 5709 5702 5694 5686 5678 5669 5661 5652 5644 5636 5628 5619 5612 5604 5595 5587 5580 5571 5565 5560 5554 5550 5545 5539 5534 5530 5525 5523 5538 5522 5522 5520 5520 5522 5523 5526 5533 5541
5726 5722 5716 5709 5701 5693 5685 5676 5667 5658 5649 5641 5633 5624 5615 5606 5596 5586 5578 5570 5563 5557 5550 5545 5540 5534 5531 5525 5521 5517 5514 5510 5507 5509 5509 5507 5505 5503 5504 5504 5505 5511 5516
5715 5709 5701 5693 5684 5676 5667 5658 5649 5639 5630 5621 5612 5601 5590 5580 5571 5562 5556 5549 5543 5537 5532 5527 5523 5518 5515 5511 5508 5506 5502 5499 5495 5492 5494 5491 5491 5490 5491 5492 5492 5492 5496
5701 5693 5685 5677 5668 5658 5649 5640 5630 5620 5609 5597 5586 5577 5567 5559 5550 5543 5537 5531 5526 5520 5516 5511 5508 5504 5503 5499 5495 5492 5488 5485 5482 5479 5479 5478 5477 5477 5478 5480 5481 5480 5482
5687 5679 5670 5660 5651 5641 5631 5619 5606 5594 5583 5573 5565 5556 5548 5540 5533 5527 5521 5516 5511 5507 5503 5499 5496 5492 5488 5485 5481 5479 5477 5474 5471 5469 5468 5468 5469 5468 5468 5468 5469 5470 5473
5672 5663 5653 5643 5632 5619 5606 5594 5583 5573 5563 5554 5546 5540 5534 5527 5520 5513 5507 5504 5501 5497 5493 5489 5484 5480 5476 5474 5471 5468 5466 5463 5460 5458 5457 5458 5458 5457 5457 5458 5459 5459 5463
5655 5646 5635 5622 5609 5598 5586 5575 5565 5556 5546 5539 5532 5526 5520 5515 5509 5504 5499 5493 5489 5484 5479 5476 5473 5469 5466 5464 5462 5460 5457 5454 5451 5448 5446 5447 5447 5447 5446 5447 5448 5449 5452
5638 5626 5615 5603 5591 5579 5569 5558 5548 5539 5532 5526 5520 5514 5510 5505 5500 5495 5489 5483 5478 5473 5469 5466 5464 5461 5458 5456 5454 5452 5449 5446 5442 5439 5437 5437 5434 5436 5435 5435 5437 5438 5442
5621 5609 5597 5585 5574 5563 5552 5542 5533 5527 5521 5516 5510 5506 5502 5497 5490 5485 5479 5475 5470 5465 5460 5456 5455 5453 5451 5448 5446 5443 5440 5437 5432 5429 5426 5425 5425 5424 5424 5423 5425 5427 5431
5604 5591 5579 5569 5558 5548 5539 5530 5524 5518 5514 5509 5505 5499 5493 5487 5481 5477 5472 5468 5463 5457 5452 5450 5449 5447 5445 5442 5438 5434 5431 5427 5425 5422 5418 5416 5414 5414 5412 5411 5413 5416 5419
5586 5574 5564 5555 5546 5537 5529 5523 5517 5512 5508 5504 5499 5493 5485 5479 5474 5469 5464 5460 5456 5453 5449 5446 5444 5442 5439 5436 5431 5427 5422 5419 5416 5412 5410 5408 5406 5404 5402 5401 5401 5404 5408
5571 5562 5553 5544 5536 5528 5522 5516 5510 5507 5503 5498 5493 5486 5478 5472 5467 5463 5459 5455 5451 5449 5446 5443 5440 5438 5434 5430 5425 5420 5415 5411 5406 5403 5401 5399 5397 5395 5394 5392 5393 5394 5397
5559 5551 5542 5534 5528 5521 5515 5510 5505 5501 5497 5492 5486 5480 5474 5468 5463 5458 5454 5450 5447 5444 5442 5438 5435 5432 5428 5423 5418 5412 5407 5402 5398 5394 5392 5390 5389 5388 5387 5387 5387 5388 5390
5548 5541 5534 5528 5520 5514 5509 5505 5501 5496 5492 5486 5480 5475 5469 5463 5459 5454 5450 5446 5443 5440 5437 5433 5429 5425 5420 5416 5410 5404 5398 5393 5389 5386 5385 5383 5383 5382 5382 5381 5381 5382 5384
5539 5532 5526 5520 5514 5508 5504 5500 5496 5491 5486 5481 5476 5471 5466 5460 5455 5450 5446 5443 5439 5436 5432 5428 5424 5420 5414 5408 5401 5395 5389 5385 5382 5381 5380 5380 5379 5379 5378 5378 5377 5378 5379
5530 5523 5518 5513 5508 5503 5500 5496 5487 5483 5478 5474 5470 5466 5461 5456 5451 5448 5443 5440 5436 5432 5428 5423 5419 5413 5408 5401 5393 5388 5384 5381 5379 5379 5379 5379 5378 5378 5377 5376 5376 5375 5375
5521 5516 5510 5506 5502 5499 5496 5492 5487 5480 5473 5470 5467 5462 5457 5453 5449 5445 5441 5436 5431 5428 5423 5418 5413 5408 5401 5394 5389 5385 5383 5382 5381 5381 5380 5379 5378 5377 5376 5376 5375 5375 5374
5512 5508 5504 5501 5497 5494 5491 5486 5482 5478 5474 5468 5463 5460 5455 5451 5446 5442 5438 5433 5428 5423 5418 5413 5408 5402 5396 5391 5387 5385 5385 5384 5383 5382 5381 5380 5378 5377 5376 5374 5373 5371 5370
5503 5500 5497 5495 5493 5490 5486 5482 5478 5474 5471 5467 5462 5457 5453 5448 5444 5440 5435 5430 5426 5421 5416 5410 5405 5399 5393 5389 5385 5385 5386 5385 5384 5383 5382 5380 5378 5377 5375 5373 5371 5368 5365
5496 5495 5494 5493 5490 5486 5482 5478 5475 5472 5469 5465 5460 5456 5450 5445 5441 5436 5431 5427 5423 5418 5413 5407 5402 5397 5391 5387 5385 5386 5386 5386 5385 5384 5382 5381 5378 5376 5374 5372 5368 5364 5359
5493 5493 5493 5491 5487 5483 5480 5477 5474 5470 5467 5463 5459 5454 5449 5444 5439 5434 5429 5424 5420 5415 5410 5405 5400 5395 5390 5386 5384 5386 5387 5387 5386 5384 5383 5381 5378 5377 5374 5370 5365 5360 5354
5496 5495 5492 5489 5485 5482 5479 5476 5472 5469 5466 5462 5457 5453 5448 5442 5437 5432 5426 5421 5416 5412 5407 5402 5397 5393 5388 5385 5384 5386 5386 5387 5386 5384 5383 5381 5379 5376 5373 5369 5364 5358 5353
5499 5496 5492 5488 5484 5481 5478 5475 5472 5468 5465 5460 5456 5451 5446 5440 5435 5429 5424 5418 5413 5409 5404 5400 5395 5391 5387 5384 5383 5384 5386 5386 5386 5385 5384 5382 5380 5377 5373 5369 5364 5359 5355
5500 5496 5492 5488 5484 5481 5477 5474 5471 5467 5463 5460 5455 5450 5444 5438 5432 5425 5420 5414 5409 5404 5400 5396 5392 5388 5385 5382 5380 5382 5384 5385 5385 5385 5384 5382 5381 5378 5375 5370 5365 5361 5357
5501 5496 5492 5488 5484 5480 5477 5474 5470 5466 5463 5459 5454 5448 5441 5434 5428 5420 5414 5408 5402 5398 5394 5390 5387 5384 5382 5379 5378 5378 5381 5383 5384 5384 5384 5383 5381 5379 5376 5372 5367 5362 5359
5501 5496 5492 5488 5484 5481 5477 5473 5469 5466 5462 5457 5452 5446 5439 5432 5424 5416 5408 5402 5395 5391 5387 5385 5382 5380 5378 5376 5374 5374 5377 5380 5382 5383 5383 5382 5382 5380 5377 5374 5370 5364 5360
Wind_Speed
38 43 47 52 57 61 65 68 71 73 74 76 78 79 81 83 85 86 87 87 87 87 85 83 81 78 75 71 69 67 66 66 66 55 56 49 52 55 60 66 70 74 79
44 49 54 59 63 66 69 71 72 74 76 78 80 82 85 85 84 83 83 82 80 77 73 69 66 63 60 59 58 53 49 47 47 44 45 48 46 43 42 47 56 61 60
50 56 61 64 67 68 70 71 73 76 79 82 83 83 81 79 78 76 74 70 67 63 60 57 54 54 48 41 44 46 48 49 50 49 46 45 41 38 37 35 37 46 55
58 62 64 65 66 69 71 74 78 81 82 79 76 73 72 70 68 66 64 61 58 55 52 50 43 39 42 45 48 48 46 43 42 40 37 36 37 38 39 38 34 33 40
62 63 64 66 68 72 76 80 80 77 73 70 67 65 62 60 58 57 54 50 45 42 39 37 40 45 47 46 43 40 38 37 37 37 35 32 31 31 30 31 32 36 32
61 62 65 70 74 78 80 77 73 70 66 63 59 55 52 50 49 44 40 35 35 37 39 42 44 42 38 35 34 34 33 34 35 35 35 32 31 32 30 28 28 31 33
62 67 71 75 79 78 72 70 66 62 57 52 49 46 43 41 35 33 37 41 43 42 38 34 33 31 29 28 30 31 29 30 33 35 36 33 31 31 32 30 30 31 31
68 72 75 79 75 69 65 63 58 51 46 43 40 39 33 31 36 38 43 41 37 34 31 28 26 26 27 22 22 26 31 33 36 38 38 35 36 33 33 33 31 33 32
71 74 77 70 65 61 59 54 47 39 36 35 33 28 32 35 40 41 38 32 32 31 30 27 22 17 17 20 24 28 28 26 29 32 36 36 36 34 34 34 31 31 30
73 73 65 60 58 54 48 40 32 32 31 26 26 32 36 38 38 34 32 27 25 25 24 19 14 14 16 21 26 29 28 26 25 25 28 28 28 28 30 31 32 31 29
71 61 57 53 49 43 37 33 32 28 21 26 29 33 35 35 33 29 27 23 20 15 11 11 13 17 21 23 27 29 30 29 27 28 28 28 27 27 26 26 26 29 30
59 53 49 46 40 37 34 32 26 20 24 27 30 31 34 32 31 27 25 23 19 18 14 16 18 20 23 26 29 32 32 32 31 29 29 26 26 23 21 20 19 22 26
49 46 44 38 37 34 32 25 21 24 27 29 29 29 29 29 27 27 24 19 18 16 16 19 19 22 25 28 33 34 34 33 31 27 25 23 21 21 20 16 16 17 19
44 41 37 33 35 31 28 21 22 25 27 27 26 26 27 27 26 25 23 19 18 18 19 19 23 26 28 31 35 37 35 31 25 22 18 17 16 17 18 18 17 17 16
39 36 32 31 31 27 24 23 25 28 27 24 22 21 22 23 25 23 21 18 17 18 20 23 25 27 29 34 37 34 28 22 16 12 11 9 6 6 8 11 14 15 12
34 32 30 28 27 22 21 24 30 29 28 25 22 21 23 23 19 18 18 18 19 21 22 22 25 27 31 35 30 22 17 10 4 4 4 4 4 3 5 6 6 6 11
31 30 27 25 22 20 21 22 23 28 28 24 22 22 22 18 18 19 19 20 21 21 22 26 26 27 31 28 22 13 6 10 11 9 6 5 6 8 8 7 6 7 9
28 27 24 21 18 18 20 22 23 22 23 23 23 20 19 18 18 18 19 19 20 21 24 25 26 27 27 25 16 4 6 7 6 5 5 7 8 6 8 11 13 16 14
25 23 19 16 16 17 19 20 21 20 17 18 20 19 18 19 18 18 18 18 20 22 24 24 25 27 25 20 6 11 4 4 5 6 7 8 4 6 8 11 12 16 21
17 13 12 12 14 17 20 20 18 17 16 15 17 18 20 20 21 23 22 22 22 24 24 23 24 27 24 15 4 10 4 4 5 5 4 4 2 2 6 11 16 20 17
6 6 9 12 15 17 19 17 15 14 13 15 16 18 18 19 21 22 22 22 22 23 24 23 23 24 21 11 9 10 6 2 5 4 4 7 8 8 10 15 16 19 17
9 11 13 15 17 18 16 15 13 12 13 14 16 18 20 21 22 21 21 21 20 19 21 21 21 21 20 10 10 13 7 2 1 3 5 3 9 12 12 17 20 18 11
15 16 16 16 16 15 16 14 12 12 14 15 17 19 21 23 24 25 26 24 21 19 20 20 19 20 18 10 7 14 11 5 1 4 6 8 11 14 17 15 19 16 12
17 17 18 17 15 16 14 13 13 14 14 14 18 21 24 26 27 29 30 30 26 22 20 21 19 18 17 11 4 19 15 10 5 3 4 7 10 13 17 22 15 16 16
18 19 18 16 17 15 13 14 14 15 16 18 21 26 29 30 31 31 31 32 29 25 22 22 20 15 15 12 4 16 19 14 9 4 2 3 8 12 16 19 22 19 9
19 19 16 16 15 14 14 15 16 17 17 21 25 27 28 31 33 34 33 31 26 22 19 20 15 11 12 13 5 10 23 18 13 8 4 0 4 10 14 19 24 20 6
Wind_Direction
289 291 292 294 295 295 295 295 295 295 293 292 292 292 292 291 290 290 289 287 285 283 284 285 285 286 287 287 286 286 285 285 284 282 278 278 278 270 264 261 259 256 253
290 293 296 296 297 298 297 295 294 294 294 293 293 291 291 291 290 287 286 286 287 288 289 289 289 288 288 287 287 287 288 286 285 281 278 280 279 274 268 262 256 255 252
295 298 299 298 297 296 296 296 296 294 293 293 294 295 292 291 291 291 292 292 292 291 291 290 289 288 287 285 287 287 286 285 285 284 283 280 275 272 267 266 266 256 249
299 299 298 298 298 298 298 296 295 297 299 298 295 295 294 293 294 294 293 293 292 292 290 289 288 284 288 288 288 286 287 286 285 284 283 280 277 271 268 266 264 261 250
298 299 300 300 299 298 298 300 304 303 301 300 298 297 296 296 295 295 294 294 294 293 293 288 288 290 290 288 287 286 285 286 285 285 284 282 279 278 276 271 263 258 251
300 301 301 301 302 304 308 308 305 304 301 299 297 296 296 298 299 299 299 302 301 297 291 289 287 286 286 287 285 286 288 287 285 285 284 283 280 277 275 267 262 259 250
303 304 305 307 308 310 308 306 305 303 301 301 300 300 300 302 303 305 304 303 301 299 295 292 290 289 288 288 288 288 288 286 286 285 287 289 282 276 272 268 259 254 253
307 307 309 310 311 309 307 307 305 305 304 303 303 304 306 306 305 304 304 305 304 301 298 294 292 291 291 289 291 290 289 287 284 283 284 283 282 280 276 271 265 256 249
309 310 311 311 310 310 311 311 310 309 308 309 311 310 310 307 305 306 308 309 307 304 301 298 294 290 289 293 298 303 301 291 285 286 283 282 282 280 274 268 265 257 247
310 312 312 313 313 314 314 314 314 314 316 317 315 313 309 306 306 311 310 310 308 309 300 299 300 305 304 306 308 310 310 299 290 285 285 289 288 286 280 272 264 257 250
315 313 314 315 316 317 316 315 316 318 320 317 316 313 308 308 314 319 318 318 317 320 317 304 306 312 312 312 313 315 315 310 295 288 286 288 290 290 286 278 265 254 249
313 314 316 318 319 317 316 316 316 316 318 319 319 316 312 314 317 320 321 314 307 308 302 305 307 310 311 312 313 314 311 308 303 289 285 289 290 289 286 278 265 251 245
314 317 320 319 318 316 316 316 310 316 320 322 320 316 314 314 318 323 326 313 306 303 304 307 308 313 315 315 314 312 310 304 300 289 290 289 283 277 275 274 269 261 248
316 319 319 317 320 316 316 309 310 316 321 323 323 319 314 312 316 320 325 318 313 311 314 312 315 316 314 313 314 312 309 305 299 291 286 282 277 273 273 272 268 263 251
316 319 317 316 321 318 314 309 313 319 323 326 326 317 313 313 319 321 324 320 314 314 315 313 311 311 310 311 313 312 310 307 297 287 285 283 285 285 281 277 267 266 258
316 318 317 317 320 317 311 313 320 327 326 331 332 328 325 325 325 327 328 325 322 320 317 316 318 316 315 318 322 323 322 326 347 69 87 75 76 64 27 20 5 307 263
314 316 316 317 317 312 312 318 321 323 324 330 332 330 329 333 333 333 330 327 323 323 322 321 322 322 324 328 331 341 66 79 78 73 57 44 38 21 355 333 319 299 301
311 313 314 314 311 310 316 323 326 327 326 328 334 337 333 333 335 337 335 332 333 334 331 331 331 329 330 331 336 119 119 79 56 65 61 29 24 29 17 348 333 317 296
309 311 312 311 311 319 323 325 329 333 337 337 333 335 336 339 338 340 337 332 337 337 335 335 338 335 335 336 339 163 149 72 62 44 26 14 13 14 346 314 312 309 304
308 309 309 315 324 329 330 334 340 340 343 342 338 338 339 341 340 340 338 337 332 333 334 335 337 343 342 343 176 180 147 97 41 38 36 43 16 343 334 337 325 327 321
349 342 339 341 338 336 335 342 343 342 346 341 338 336 335 336 337 338 336 334 334 334 335 335 336 343 346 344 185 188 157 83 60 49 33 13 1 356 348 346 344 333 329
25 10 0 350 344 338 343 347 343 347 345 340 336 336 338 336 337 337 336 335 334 334 339 338 337 339 347 345 195 195 177 167 59 359 342 333 32 19 11 4 354 359 14
16 8 359 351 345 345 351 349 351 350 346 344 340 343 344 339 334 333 331 330 328 327 332 338 340 343 340 341 207 185 176 178 121 70 12 30 38 26 19 16 6 15 26
8 0 355 351 351 352 353 353 359 351 344 343 347 353 347 341 336 332 330 327 324 319 323 324 328 338 338 336 248 195 187 183 173 107 73 42 40 20 16 17 8 5 10
1 357 354 355 354 356 360 359 357 352 347 349 348 346 344 342 338 334 332 328 322 313 312 318 313 316 331 324 282 202 200 197 186 173 168 17 23 16 11 13 18 18 8
358 355 355 355 355 1 1 0 358 353 351 351 350 348 346 344 340 337 337 336 336 332 320 321 321 319 323 321 277 217 203 211 206 197 205 355 7 4 4 13 9 9 36